ND5T-1 Weather Reports


time (UTC)temp
C
wind
direction
speed
KPH
gust
KPH
rain 1hr
cm
rain 24hr
cm
rain mn
cm
humidity
%
barometer
mb
20260506002326 26 61 0.0 1.6 0.00 0.00 0.00 82 1007.3
20260506001326 27 61 0.0 1.6 0.00 0.00 0.00 81 1007.1
20260506000323 27 61 0.0 4.8 0.00 0.00 0.00 80 1007.0
20260505235333 27 39 0.0 3.2 0.00 0.00 0.00 79 1007.2
20260505234354 27 109 0.0 1.6 0.00 0.00 0.00 79 1007.1
20260505233329 27 101 0.0 3.2 0.00 0.00 0.00 79 1007.1
20260505232332 27 62 0.0 3.2 0.00 0.00 0.00 78 1007.1
20260505231353 27 118 0.0 3.2 0.00 0.00 0.00 79 1007.2
20260505230334 27 126 0.0 1.6 0.00 0.00 0.00 79 1006.9
20260505225326 27 118 0.0 4.8 0.00 0.00 0.00 78 1007.0
20260505224329 27 111 1.6 12.9 0.00 0.00 0.00 78 1006.8
20260505223344 27 117 1.6 8.0 0.00 0.00 0.00 78 1006.9
20260505222324 28 284 0.0 3.2 0.00 0.00 0.00 78 1007.0
20260505221326 28 317 0.0 3.2 0.00 0.00 0.00 78 1006.8
20260505220327 28 96 0.0 4.8 0.00 0.00 0.00 78 1007.0
20260505215321 28 38 0.0 1.6 0.00 0.00 0.00 79 1007.2
20260505214324 28 30 1.6 6.4 0.00 0.00 0.00 78 1007.4
20260505213321 28 340 0.0 4.8 0.00 0.00 0.00 78 1007.6
20260505212321 28 103 0.0 1.6 0.00 0.00 0.00 78 1007.6
20260505211321 28 102 0.0 3.2 0.00 0.00 0.00 77 1007.7
20260505210322 28 82 0.0 4.8 0.00 0.00 0.00 77 1007.8
20260505205345 28 63 0.0 11.3 0.00 0.00 0.00 75 1007.9
20260505204325 28 121 1.6 9.7 0.00 0.00 0.00 76 1008.1
20260505203329 28 165 0.0 3.2 0.00 0.00 0.00 77 1008.1
20260505202328 28 47 0.0 4.8 0.00 0.00 0.00 79 1008.3
20260505201347 27 42 0.0 1.6 0.00 0.00 0.00 78 1008.6
20260505200328 28 18 0.0 3.2 0.00 0.00 0.00 78 1008.6
20260505195321 28 271 1.6 4.8 0.00 0.00 0.00 77 1008.7
20260505194319 28 290 1.6 11.3 0.00 0.00 0.00 78 1008.8
20260505193339 28 279 1.6 4.8 0.00 0.00 0.00 78 1008.8
20260505192335 27 113 1.6 9.7 0.00 0.00 0.00 79 1008.8
20260505191331 27 284 0.0 3.2 0.00 0.00 0.00 80 1009.0
20260505190351 27 44 0.0 3.2 0.00 0.00 0.00 80 1009.1
20260505185321 26 165 1.6 4.8 0.00 0.00 0.00 81 1009.3
20260505184323 26 148 0.0 3.2 0.00 0.00 0.00 81 1009.4
20260505183323 26 194 1.6 11.3 0.00 0.00 0.00 82 1009.4
20260505182325 26 140 0.0 6.4 0.00 0.00 0.00 83 1009.5
20260505181327 26 138 0.0 1.6 0.00 0.00 0.00 84 1009.5
20260505180328 26 138 0.0 1.6 0.00 0.00 0.00 83 1009.5
20260505175317 26 104 1.6 4.8 0.00 0.00 0.00 83 1009.5
20260505174317 25 120 0.0 4.8 0.00 0.00 0.00 85 1009.6
20260505173321 25 109 0.0 1.6 0.00 0.00 0.00 86 1009.7
20260505172319 25 121 0.0 1.6 0.00 0.00 0.00 86 1009.8
20260505171340 25 150 0.0 0.0 0.00 0.00 0.00 86 1009.9
20260505170323 25 150 0.0 1.6 0.00 0.00 0.00 85 1010.0
20260505165333 25 152 0.0 8.0 0.00 0.00 0.00 85 1009.9
20260505164332 25 79 0.0 3.2 0.00 0.00 0.00 85 1009.9
20260505163334 25 108 0.0 1.6 0.00 0.00 0.00 86 1010.1
20260505162355 25 108 0.0 3.2 0.00 0.00 0.00 86 1010.1
20260505161357 25 109 0.0 3.2 0.00 0.00 0.00 86 1009.9
20260505160337 25 98 0.0 3.2 0.00 0.00 0.00 85 1010.0
20260505153324 25 109 0.0 4.8 0.00 0.00 0.00 86 1009.7
20260505152325 24 103 0.0 1.6 0.00 0.00 0.00 87 1009.8
20260505151329 24 82 0.0 3.2 0.00 0.00 0.00 87 1009.8
20260505150330 24 86 0.0 3.2 0.00 0.00 0.00 86 1009.8
20260505140319 23 55 0.0 8.0 0.00 0.00 0.00 88 1009.2
20260505124331 22 58 0.0 1.6 0.00 0.00 0.00 90 1008.9
20260505123330 22 57 0.0 6.4 0.00 0.00 0.00 90 1009.3
20260505122328 22 180 0.0 1.6 0.00 0.00 0.00 91 1009.2
20260505121330 22 180 1.6 3.2 0.00 0.00 0.00 91 1009.1
20260505120332 22 348 0.0 1.6 0.00 0.00 0.00 91 1008.9
20260505115322 22 76 0.0 1.6 0.00 0.00 0.00 91 1008.8
20260505114320 22 59 0.0 3.2 0.00 0.00 0.00 91 1009.0
20260505113340 21 132 0.0 3.2 0.00 0.00 0.00 91 1009.0
20260505112320 21 65 0.0 1.6 0.00 0.00 0.00 92 1008.9
20260505111323 21 65 0.0 0.0 0.00 0.00 0.00 92 1008.8
20260505110324 21 65 0.0 0.0 0.00 0.00 0.00 92 1008.7
20260505101335 21 65 0.0 0.0 0.00 0.00 0.00 92 1008.9
20260505100334 20 65 0.0 0.0 0.00 0.00 0.00 92 1009.1
20260505095346 20 65 0.0 0.0 0.00 0.00 0.00 92 1008.9
20260505094325 20 65 0.0 0.0 0.00 0.00 0.00 91 1009.0
20260505093325 20 65 0.0 0.0 0.00 0.00 0.00 91 1009.1
20260505092326 20 65 0.0 0.0 0.00 0.00 0.00 91 1009.2
20260505091325 20 65 0.0 0.0 0.00 0.00 0.00 91 1009.2
20260505090325 20 65 0.0 0.0 0.00 0.00 0.00 91 1009.3
20260505085335 20 65 0.0 0.0 0.00 0.00 0.00 90 1009.2
20260505084350 20 65 0.0 0.0 0.00 0.00 0.00 90 1009.4
20260505083330 21 65 0.0 0.0 0.00 0.00 0.00 90 1009.5
20260505082332 21 65 0.0 0.0 0.00 0.00 0.00 90 1009.4
20260505081330 21 65 0.0 0.0 0.00 0.00 0.00 89 1009.6
20260505080329 21 65 0.0 0.0 0.00 0.00 0.00 89 1009.6
20260505075335 21 65 0.0 0.0 0.00 0.00 0.00 89 1009.7
20260505074318 21 65 0.0 0.0 0.00 0.00 0.00 89 1009.7
20260505073336 21 65 0.0 0.0 0.00 0.00 0.00 89 1009.8
20260505072336 21 65 0.0 3.2 0.00 0.00 0.00 89 1010.0
20260505071353 21 281 0.0 0.0 0.00 0.00 0.00 89 1010.0
20260505070333 21 281 0.0 1.6 0.00 0.00 0.00 88 1010.1
20260505065320 21 304 0.0 1.6 0.00 0.00 0.00 88 1010.2
20260505064319 21 305 0.0 0.0 0.00 0.00 0.00 87 1010.2
20260505063321 21 305 0.0 0.0 0.00 0.00 0.00 87 1010.5
20260505062319 21 305 0.0 0.0 0.00 0.00 0.00 86 1010.5
20260505061318 21 304 0.0 0.0 0.00 0.00 0.00 86 1010.7
20260505060320 21 304 0.0 0.0 0.00 0.00 0.00 85 1010.6
20260505055332 21 304 0.0 1.6 0.00 0.00 0.00 85 1010.6
20260505054332 21 304 0.0 3.2 0.00 0.00 0.00 84 1010.8
20260505053332 21 321 0.0 0.0 0.00 0.00 0.00 83 1010.7
20260505052346 21 321 0.0 1.6 0.00 0.00 0.00 83 1011.0
20260505051323 22 351 0.0 4.8 0.00 0.00 0.00 82 1011.1
20260505050324 22 31 0.0 1.6 0.00 0.00 0.00 81 1011.1
20260505041325 22 75 0.0 1.6 0.00 0.00 0.00 80 1010.9
20260505040325 22 13 0.0 3.2 0.00 0.00 0.00 79 1011.3
20260505035334 22 133 0.0 1.6 0.00 0.00 0.00 79 1011.1
20260505034332 22 133 0.0 4.8 0.00 0.00 0.00 79 1011.1
20260505033331 22 306 0.0 3.2 0.00 0.00 0.00 78 1011.4
20260505032334 22 90 1.6 4.8 0.00 0.00 0.00 78 1011.4
20260505031318 22 53 0.0 3.2 0.00 0.00 0.00 78 1011.4
20260505030318 22 223 0.0 6.4 0.00 0.00 0.00 79 1011.2
20260505025327 22 222 0.0 8.0 0.00 0.00 0.00 78 1011.1
20260505024349 22 121 0.0 4.8 0.00 0.00 0.00 77 1011.2
20260505023331 22 126 0.0 1.6 0.00 0.00 0.00 77 1011.2
20260505022353 22 22 0.0 4.8 0.00 0.00 0.00 77 1011.2
20260505021348 22 156 0.0 4.8 0.00 0.00 0.00 77 1011.2
20260505020328 22 5 0.0 3.2 0.00 0.00 0.00 77 1011.0
20260505015317 22 69 0.0 0.0 0.00 0.00 0.00 76 1010.9
20260505014320 23 69 0.0 1.6 0.00 0.00 0.00 76 1010.7
20260505013322 23 69 0.0 0.0 0.00 0.00 0.00 75 1010.7
20260505012325 23 69 0.0 3.2 0.00 0.00 0.00 74 1010.6
20260505011329 23 32 0.0 1.6 0.00 0.00 0.00 73 1010.7
20260505010328 23 31 0.0 1.6 0.00 0.00 0.00 73 1010.6
20260505005317 23 343 0.0 3.2 0.00 0.00 0.00 73 1010.7
20260505004335 24 325 0.0 1.6 0.00 0.00 0.00 73 1010.6